Time,TemperatureF,DewpointF,PressureIn,WindDirection,WindDirectionDegrees,WindSpeedMPH,WindSpeedGustMPH,Humidity,HourlyPrecipIn,Conditions,Clouds,dailyrainin,SoftwareType,DateUTC
2013-10-21 00:22:00,60.0,56.0,29.95,WSW,244,0.0,0.0,86,0.00,,,0.00,,2013-10-21 07:22:00,
2013-10-21 00:42:00,60.0,56.0,29.95,WSW,244,0.0,0.0,87,0.00,,,0.00,,2013-10-21 07:42:00,
2013-10-21 00:52:00,60.0,56.0,29.96,WSW,244,0.0,0.0,87,0.00,,,0.00,,2013-10-21 07:52:00,
2013-10-21 01:21:00,60.0,56.0,29.96,WSW,244,0.0,0.0,88,0.00,,,0.00,,2013-10-21 08:21:00,
2013-10-21 01:52:00,60.0,56.0,29.96,WSW,244,0.0,0.0,88,0.00,,,0.00,,2013-10-21 08:52:00,
2013-10-21 02:22:00,59.0,55.0,29.96,WSW,244,0.0,0.0,88,0.00,,,0.00,,2013-10-21 09:22:00,
2013-10-21 02:53:00,59.0,56.0,29.97,WSW,244,0.0,0.0,89,0.00,,,0.00,,2013-10-21 09:53:00,
2013-10-21 03:22:00,59.0,56.0,29.96,WSW,244,0.0,0.0,89,0.00,,,0.00,,2013-10-21 10:22:00,
2013-10-21 03:42:00,59.0,56.0,29.96,WSW,244,0.0,0.0,89,0.00,,,0.00,,2013-10-21 10:42:00,
2013-10-21 03:52:00,59.0,56.0,29.96,WSW,244,0.0,0.0,89,0.00,,,0.00,,2013-10-21 10:52:00,
2013-10-21 04:22:00,59.0,56.0,29.96,WSW,244,0.0,0.0,89,0.00,,,0.00,,2013-10-21 11:22:00,
2013-10-21 04:42:00,59.0,56.0,29.96,WSW,244,0.0,0.0,89,0.00,,,0.00,,2013-10-21 11:42:00,
2013-10-21 04:52:00,59.0,56.0,29.96,WSW,244,0.0,0.0,89,0.00,,,0.00,,2013-10-21 11:52:00,
2013-10-21 05:22:00,58.0,55.0,29.96,WSW,244,0.0,0.0,89,0.00,,,0.00,,2013-10-21 12:22:00,
2013-10-21 05:42:00,58.0,55.0,29.96,WSW,244,0.0,0.0,89,0.00,,,0.00,,2013-10-21 12:42:00,
2013-10-21 05:52:00,58.0,55.0,29.96,WSW,244,0.0,0.0,89,0.00,,,0.00,,2013-10-21 12:52:00,
2013-10-21 06:11:00,58.0,54.0,29.96,WSW,244,0.0,0.0,88,0.00,,,0.00,,2013-10-21 13:11:00,
2013-10-21 06:22:00,58.0,54.0,29.96,WSW,244,0.0,0.0,88,0.00,,,0.00,,2013-10-21 13:22:00,
2013-10-21 06:42:00,58.0,54.0,29.97,WSW,244,0.0,0.0,88,0.00,,,0.00,,2013-10-21 13:42:00,
2013-10-21 06:52:00,57.0,53.0,29.97,WSW,244,0.0,0.0,88,0.00,,,0.00,,2013-10-21 13:52:00,
2013-10-21 07:21:00,56.0,52.0,29.97,WSW,244,0.0,0.0,88,0.00,,,0.00,,2013-10-21 14:21:00,
2013-10-21 07:42:00,56.0,52.0,29.97,WSW,244,0.0,0.0,88,0.00,,,0.00,,2013-10-21 14:42:00,
2013-10-21 07:52:00,55.0,52.0,29.98,WSW,244,0.0,0.0,88,0.00,,,0.00,,2013-10-21 14:52:00,
2013-10-21 08:21:00,55.0,52.0,29.98,WSW,244,0.0,0.0,88,0.00,,,0.00,,2013-10-21 15:21:00,
2013-10-21 08:53:00,55.0,52.0,29.99,WSW,244,0.0,0.0,88,0.00,,,0.00,,2013-10-21 15:53:00,
2013-10-21 09:23:00,56.0,52.0,30.00,WSW,244,0.0,0.0,88,0.00,,,0.00,,2013-10-21 16:23:00,
2013-10-21 09:43:00,56.0,52.0,30.00,WSW,244,0.0,0.0,87,0.00,,,0.00,,2013-10-21 16:43:00,
2013-10-21 09:53:00,56.0,52.0,30.01,WSW,244,0.0,0.0,86,0.00,,,0.00,,2013-10-21 16:53:00,
2013-10-21 10:21:00,58.0,54.0,30.01,SSW,194,0.0,3.0,87,0.00,,,0.00,,2013-10-21 17:21:00,
2013-10-21 10:42:00,59.0,55.0,30.00,SSW,194,0.0,0.0,87,0.00,,,0.00,,2013-10-21 17:42:00,
2013-10-21 10:53:00,60.0,56.0,30.00,SSW,212,0.0,0.0,86,0.00,,,0.00,,2013-10-21 17:53:00,
2013-10-21 11:21:00,61.0,56.0,29.99,SW,229,0.0,0.0,85,0.00,,,0.00,,2013-10-21 18:21:00,
2013-10-21 11:42:00,62.0,57.0,29.99,SSW,208,8.0,8.0,84,0.00,,,0.00,,2013-10-21 18:42:00,
2013-10-21 11:52:00,63.0,57.0,29.99,SW,230,0.0,0.0,82,0.00,,,0.00,,2013-10-21 18:52:00,
2013-10-21 12:21:00,64.0,58.0,29.99,SSE,166,5.0,5.0,80,0.00,,,0.00,,2013-10-21 19:21:00,
2013-10-21 12:52:00,65.0,58.0,29.98,South,189,0.0,10.0,79,0.00,,,0.00,,2013-10-21 19:52:00,
2013-10-21 13:21:00,65.0,57.0,29.97,SSW,211,7.0,7.0,75,0.00,,,0.00,,2013-10-21 20:21:00,
2013-10-21 13:52:00,65.0,56.0,29.96,SSW,202,6.0,10.0,73,0.00,,,0.00,,2013-10-21 20:52:00,
2013-10-21 14:22:00,66.0,57.0,29.94,SW,224,5.0,5.0,72,0.00,,,0.00,,2013-10-21 21:22:00,
2013-10-21 14:54:00,66.0,56.0,29.94,South,185,5.0,9.0,71,0.00,,,0.00,,2013-10-21 21:54:00,
2013-10-21 15:23:00,66.0,57.0,29.93,South,179,0.0,12.0,72,0.00,,,0.00,,2013-10-21 22:23:00,
2013-10-21 15:53:00,67.0,58.0,29.93,SW,236,7.0,12.0,72,0.00,,,0.00,,2013-10-21 22:53:00,
2013-10-21 16:22:00,66.0,57.0,29.93,SSW,213,0.0,13.0,73,0.00,,,0.00,,2013-10-21 23:22:00,
2013-10-21 16:53:00,66.0,57.0,29.93,WSW,238,7.0,9.0,74,0.00,,,0.00,,2013-10-21 23:53:00,
2013-10-21 17:22:00,66.0,57.0,29.92,SW,218,5.0,11.0,74,0.00,,,0.00,,2013-10-22 00:22:00,
2013-10-21 17:53:00,65.0,57.0,29.92,South,186,0.0,9.0,76,0.00,,,0.00,,2013-10-22 00:53:00,
2013-10-21 18:21:00,64.0,57.0,29.92,SSW,205,0.0,0.0,78,0.00,,,0.00,,2013-10-22 01:21:00,
2013-10-21 18:52:00,63.0,57.0,29.93,South,183,0.0,0.0,80,0.00,,,0.00,,2013-10-22 01:52:00,
2013-10-21 19:22:00,63.0,57.0,29.93,South,183,0.0,0.0,82,0.00,,,0.00,,2013-10-22 02:22:00,
2013-10-21 19:52:00,62.0,56.0,29.94,South,183,0.0,0.0,82,0.00,,,0.00,,2013-10-22 02:52:00,
2013-10-21 20:22:00,62.0,57.0,29.95,South,183,0.0,0.0,83,0.00,,,0.00,,2013-10-22 03:22:00,
2013-10-21 20:55:00,61.0,56.0,29.96,South,183,0.0,0.0,83,0.00,,,0.00,,2013-10-22 03:55:00,
2013-10-21 21:13:00,61.0,56.0,29.96,South,183,0.0,0.0,83,0.00,,,0.00,,2013-10-22 04:13:00,
2013-10-21 21:24:00,60.0,54.0,29.96,South,183,0.0,0.0,82,0.00,,,0.00,,2013-10-22 04:24:00,
2013-10-21 21:54:00,59.0,54.0,29.97,South,183,0.0,0.0,83,0.00,,,0.00,,2013-10-22 04:54:00,
2013-10-21 22:22:00,59.0,54.0,29.98,South,183,0.0,0.0,83,0.00,,,0.00,,2013-10-22 05:22:00,
2013-10-21 22:52:00,58.0,53.0,29.99,South,183,0.0,0.0,83,0.00,,,0.00,,2013-10-22 05:52:00,
2013-10-21 23:22:00,58.0,53.0,29.99,South,183,0.0,0.0,83,0.00,,,0.00,,2013-10-22 06:22:00,
2013-10-21 23:53:00,57.0,52.0,29.99,South,183,0.0,0.0,83,0.00,,,0.00,,2013-10-22 06:53:00,